Time,TemperatureF,DewpointF,PressureIn,WindDirection,WindDirectionDegrees,WindSpeedMPH,WindSpeedGustMPH,Humidity,HourlyPrecipIn,Conditions,Clouds,dailyrainin,SoftwareType,DateUTC
2013-09-07 00:01:00,81.2,75.2,29.89,South,177,0.0,0.0,82,0.00,,---,0.00,VWS V14.01,2013-09-07 04:01:00,
2013-09-07 00:06:00,81.2,75.2,29.89,South,176,0.0,0.0,82,0.00,,---,0.00,VWS V14.01,2013-09-07 04:06:00,
2013-09-07 00:11:00,81.4,75.4,29.89,South,176,0.0,0.0,82,0.00,,---,0.00,VWS V14.01,2013-09-07 04:11:00,
2013-09-07 00:16:00,81.4,75.4,29.89,South,176,0.0,0.0,82,0.00,,---,0.00,VWS V14.01,2013-09-07 04:16:00,
2013-09-07 00:21:00,81.5,75.5,29.89,South,176,5.0,5.0,82,0.00,,---,0.00,VWS V14.01,2013-09-07 04:21:00,
2013-09-07 00:26:00,81.5,75.5,29.89,South,176,0.0,10.0,82,0.00,,---,0.00,VWS V14.01,2013-09-07 04:26:00,
2013-09-07 00:31:00,81.5,75.5,29.88,South,176,7.0,7.0,82,0.00,,---,0.00,VWS V14.01,2013-09-07 04:31:00,
2013-09-07 00:36:00,81.4,75.0,29.88,South,176,0.0,0.0,81,0.00,,---,0.00,VWS V14.01,2013-09-07 04:36:00,
2013-09-07 00:41:00,81.4,75.0,29.88,South,177,5.0,5.0,81,0.00,,---,0.00,VWS V14.01,2013-09-07 04:41:00,
2013-09-07 00:46:00,81.4,75.0,29.88,South,176,0.0,0.0,81,0.00,,---,0.00,VWS V14.01,2013-09-07 04:46:00,
2013-09-07 00:51:00,81.4,75.0,29.88,South,176,0.0,0.0,81,0.00,,---,0.00,VWS V14.01,2013-09-07 04:51:00,
2013-09-07 00:56:00,81.3,74.9,29.88,South,176,0.0,8.0,81,0.00,,---,0.00,VWS V14.01,2013-09-07 04:56:00,
2013-09-07 01:01:00,81.4,75.0,29.87,South,176,0.0,0.0,81,0.00,,---,0.00,VWS V14.01,2013-09-07 05:01:00,
2013-09-07 01:06:00,81.3,74.9,29.87,South,176,0.0,0.0,81,0.00,,---,0.00,VWS V14.01,2013-09-07 05:06:00,
2013-09-07 01:11:00,81.2,74.4,29.87,South,176,0.0,0.0,80,0.00,,---,0.00,VWS V14.01,2013-09-07 05:11:00,
2013-09-07 01:16:00,81.2,74.4,29.87,South,176,0.0,1.0,80,0.00,,---,0.00,VWS V14.01,2013-09-07 05:16:00,
2013-09-07 01:21:00,81.2,74.4,29.87,South,176,0.0,1.0,80,0.00,,---,0.00,VWS V14.01,2013-09-07 05:21:00,
2013-09-07 01:26:00,81.2,74.4,29.87,South,176,0.0,0.0,80,0.00,,---,0.00,VWS V14.01,2013-09-07 05:26:00,
2013-09-07 01:31:00,81.2,74.4,29.87,South,176,0.0,0.0,80,0.00,,---,0.00,VWS V14.01,2013-09-07 05:31:00,
2013-09-07 01:36:00,81.2,74.4,29.87,South,176,0.0,0.0,80,0.00,,---,0.00,VWS V14.01,2013-09-07 05:36:00,
2013-09-07 01:41:00,81.2,74.4,29.87,South,176,0.0,0.0,80,0.00,,---,0.00,VWS V14.01,2013-09-07 05:41:00,
2013-09-07 01:46:00,81.2,74.4,29.87,South,176,1.0,1.0,80,0.00,,---,0.00,VWS V14.01,2013-09-07 05:46:00,
2013-09-07 01:51:00,81.2,74.4,29.87,South,176,0.0,0.0,80,0.00,,---,0.00,VWS V14.01,2013-09-07 05:51:00,
2013-09-07 01:56:00,81.1,74.3,29.87,South,176,0.0,0.0,80,0.00,,---,0.00,VWS V14.01,2013-09-07 05:56:00,
2013-09-07 02:01:00,81.1,74.3,29.88,South,176,0.0,0.0,80,0.00,,---,0.00,VWS V14.01,2013-09-07 06:01:00,
2013-09-07 02:06:00,81.2,74.4,29.88,South,176,0.0,1.0,80,0.00,,---,0.00,VWS V14.01,2013-09-07 06:06:00,
2013-09-07 02:11:00,81.2,74.4,29.88,South,176,0.0,1.0,80,0.00,,---,0.00,VWS V14.01,2013-09-07 06:11:00,
2013-09-07 02:17:00,81.2,74.4,29.87,South,176,0.0,0.0,80,0.00,,---,0.00,VWS V14.01,2013-09-07 06:17:00,
2013-09-07 02:22:00,81.3,74.5,29.87,South,176,0.0,0.0,80,0.00,,---,0.00,VWS V14.01,2013-09-07 06:22:00,
2013-09-07 02:27:00,81.2,74.4,29.87,South,176,0.0,0.0,80,0.00,,---,0.00,VWS V14.01,2013-09-07 06:27:00,
2013-09-07 02:32:00,81.2,74.4,29.87,South,176,0.0,0.0,80,0.00,,---,0.00,VWS V14.01,2013-09-07 06:32:00,
2013-09-07 02:37:00,81.2,74.4,29.87,South,176,0.0,0.0,80,0.00,,---,0.00,VWS V14.01,2013-09-07 06:37:00,
2013-09-07 02:42:00,81.2,74.8,29.87,South,176,0.0,0.0,81,0.00,,---,0.00,VWS V14.01,2013-09-07 06:42:00,
2013-09-07 02:47:00,81.3,74.9,29.88,South,176,0.0,0.0,81,0.00,,---,0.00,VWS V14.01,2013-09-07 06:47:00,
2013-09-07 02:52:00,81.3,74.9,29.88,South,176,0.0,0.0,81,0.00,,---,0.00,VWS V14.01,2013-09-07 06:52:00,
2013-09-07 02:57:00,81.3,74.9,29.88,South,176,0.0,0.0,81,0.00,,---,0.00,VWS V14.01,2013-09-07 06:57:00,
2013-09-07 03:02:00,81.3,74.9,29.87,South,176,0.0,0.0,81,0.00,,---,0.00,VWS V14.01,2013-09-07 07:02:00,
2013-09-07 03:07:00,81.2,74.4,29.87,South,176,0.0,0.0,80,0.00,,---,0.00,VWS V14.01,2013-09-07 07:07:00,
2013-09-07 03:12:00,81.2,74.4,29.87,South,176,0.0,0.0,80,0.00,,---,0.00,VWS V14.01,2013-09-07 07:12:00,
2013-09-07 03:17:00,81.2,74.1,29.85,South,176,0.0,0.0,79,0.00,,---,0.00,VWS V14.01,2013-09-07 07:17:00,
2013-09-07 03:22:00,81.3,74.5,29.85,South,176,0.0,0.0,80,0.00,,---,0.00,VWS V14.01,2013-09-07 07:22:00,
2013-09-07 03:27:00,81.3,74.5,29.85,South,176,0.0,0.0,80,0.00,,---,0.00,VWS V14.01,2013-09-07 07:27:00,
2013-09-07 03:32:00,81.3,74.2,29.85,South,176,0.0,1.0,79,0.00,,---,0.00,VWS V14.01,2013-09-07 07:32:00,
2013-09-07 03:37:00,81.3,74.2,29.85,South,176,0.0,1.0,79,0.00,,---,0.00,VWS V14.01,2013-09-07 07:37:00,
2013-09-07 03:42:00,81.4,74.3,29.85,South,177,0.0,0.0,79,0.00,,---,0.00,VWS V14.01,2013-09-07 07:42:00,
2013-09-07 03:47:00,81.4,74.3,29.85,South,177,1.0,1.0,79,0.00,,---,0.00,VWS V14.01,2013-09-07 07:47:00,
2013-09-07 03:52:00,81.5,74.7,29.85,South,177,1.0,1.0,80,0.00,,---,0.00,VWS V14.01,2013-09-07 07:52:00,
2013-09-07 03:57:00,81.2,74.8,29.85,South,176,0.0,1.0,81,0.00,,---,0.00,VWS V14.01,2013-09-07 07:57:00,
2013-09-07 04:02:00,80.7,74.7,29.85,South,176,1.0,1.0,82,0.00,,---,0.00,VWS V14.01,2013-09-07 08:02:00,
2013-09-07 04:07:00,80.4,75.1,29.85,South,177,8.0,9.0,84,0.00,,---,0.00,VWS V14.01,2013-09-07 08:07:00,
2013-09-07 04:12:00,80.2,75.3,29.85,South,176,9.0,9.0,85,0.00,,---,0.00,VWS V14.01,2013-09-07 08:12:00,
2013-09-07 04:17:00,80.1,75.5,29.85,South,177,9.0,9.0,86,0.00,,---,0.00,VWS V14.01,2013-09-07 08:17:00,
2013-09-07 04:22:00,80.0,75.4,29.85,South,176,2.0,2.0,86,0.00,,---,0.00,VWS V14.01,2013-09-07 08:22:00,
2013-09-07 04:27:00,80.2,75.6,29.85,South,176,6.0,6.0,86,0.00,,---,0.00,VWS V14.01,2013-09-07 08:27:00,
2013-09-07 04:32:00,80.2,75.6,29.85,South,176,10.0,10.0,86,0.00,,---,0.00,VWS V14.01,2013-09-07 08:32:00,
2013-09-07 04:37:00,80.4,75.8,29.85,South,176,8.0,11.0,86,0.00,,---,0.00,VWS V14.01,2013-09-07 08:37:00,
2013-09-07 04:42:00,80.5,75.9,29.85,South,176,11.0,11.0,86,0.00,,---,0.00,VWS V14.01,2013-09-07 08:42:00,
2013-09-07 04:47:00,80.6,76.0,29.84,South,176,6.0,10.0,86,0.00,,---,0.00,VWS V14.01,2013-09-07 08:47:00,
2013-09-07 04:52:00,80.4,75.1,29.84,South,176,7.0,7.0,84,0.00,,---,0.00,VWS V14.01,2013-09-07 08:52:00,
2013-09-07 04:57:00,80.6,75.3,29.84,South,176,1.0,4.0,84,0.00,,---,0.00,VWS V14.01,2013-09-07 08:57:00,
2013-09-07 05:02:00,80.7,75.4,29.85,South,176,7.0,10.0,84,0.00,,---,0.00,VWS V14.01,2013-09-07 09:02:00,
2013-09-07 05:07:00,80.7,75.4,29.85,South,176,0.0,4.0,84,0.00,,---,0.00,VWS V14.01,2013-09-07 09:07:00,
2013-09-07 05:12:00,80.9,75.6,29.85,South,176,2.0,2.0,84,0.00,,---,0.00,VWS V14.01,2013-09-07 09:12:00,
2013-09-07 05:17:00,80.9,75.3,29.85,South,176,2.0,4.0,83,0.00,,---,0.00,VWS V14.01,2013-09-07 09:17:00,
2013-09-07 05:22:00,80.9,75.6,29.85,South,176,0.0,1.0,84,0.00,,---,0.00,VWS V14.01,2013-09-07 09:22:00,
2013-09-07 05:27:00,81.0,75.7,29.85,South,176,0.0,0.0,84,0.00,,---,0.00,VWS V14.01,2013-09-07 09:27:00,
2013-09-07 05:32:00,80.9,75.3,29.85,South,176,0.0,1.0,83,0.00,,---,0.00,VWS V14.01,2013-09-07 09:32:00,
2013-09-07 05:37:00,81.0,75.3,29.85,South,176,0.0,0.0,83,0.00,,---,0.00,VWS V14.01,2013-09-07 09:37:00,
2013-09-07 05:42:00,81.1,75.4,29.85,South,177,0.0,0.0,83,0.00,,---,0.00,VWS V14.01,2013-09-07 09:42:00,
2013-09-07 05:47:00,81.0,75.0,29.85,South,176,0.0,0.0,82,0.00,,---,0.00,VWS V14.01,2013-09-07 09:47:00,
2013-09-07 05:52:00,81.2,75.6,29.85,South,177,0.0,0.0,83,0.00,,---,0.00,VWS V14.01,2013-09-07 09:52:00,
2013-09-07 05:57:00,81.2,75.9,29.85,South,176,1.0,4.0,84,0.00,,---,0.00,VWS V14.01,2013-09-07 09:57:00,
2013-09-07 06:02:00,81.4,76.8,29.85,South,176,0.0,12.0,86,0.00,,---,0.00,VWS V14.01,2013-09-07 10:02:00,
2013-09-07 06:07:00,81.0,76.4,29.85,South,176,13.0,13.0,86,0.00,,---,0.00,VWS V14.01,2013-09-07 10:07:00,
2013-09-07 06:12:00,80.7,76.5,29.85,South,176,0.0,2.0,87,0.00,,---,0.00,VWS V14.01,2013-09-07 10:12:00,
2013-09-07 06:17:00,80.6,76.4,29.85,South,176,7.0,7.0,87,0.00,,---,0.00,VWS V14.01,2013-09-07 10:17:00,
2013-09-07 06:22:00,80.5,76.6,29.85,South,176,0.0,1.0,88,0.00,,---,0.00,VWS V14.01,2013-09-07 10:22:00,
2013-09-07 06:27:00,80.4,76.5,29.85,South,176,8.0,9.0,88,0.00,,---,0.00,VWS V14.01,2013-09-07 10:27:00,
2013-09-07 06:32:00,80.3,76.4,29.86,South,177,0.0,2.0,88,0.00,,---,0.00,VWS V14.01,2013-09-07 10:32:00,
2013-09-07 06:37:00,80.2,76.0,29.86,South,176,0.0,1.0,87,0.00,,---,0.00,VWS V14.01,2013-09-07 10:37:00,
2013-09-07 06:42:00,80.3,76.4,29.86,South,176,0.0,1.0,88,0.00,,---,0.00,VWS V14.01,2013-09-07 10:42:00,
2013-09-07 06:47:00,80.3,76.1,29.86,South,176,0.0,0.0,87,0.00,,---,0.00,VWS V14.01,2013-09-07 10:47:00,
2013-09-07 06:52:00,80.2,76.0,29.86,South,176,9.0,9.0,87,0.00,,---,0.00,VWS V14.01,2013-09-07 10:52:00,
2013-09-07 06:57:00,80.2,76.0,29.86,South,177,7.0,10.0,87,0.00,,---,0.00,VWS V14.01,2013-09-07 10:57:00,
2013-09-07 07:02:00,80.2,75.6,29.86,South,176,8.0,11.0,86,0.00,,---,0.00,VWS V14.01,2013-09-07 11:02:00,
2013-09-07 07:07:00,80.4,76.2,29.86,South,176,11.0,11.0,87,0.00,,---,0.00,VWS V14.01,2013-09-07 11:07:00,
2013-09-07 07:12:00,80.4,75.8,29.86,South,176,10.0,10.0,86,0.00,,---,0.00,VWS V14.01,2013-09-07 11:12:00,
2013-09-07 07:17:00,80.4,75.8,29.85,South,176,9.0,9.0,86,0.00,,---,0.00,VWS V14.01,2013-09-07 11:17:00,
2013-09-07 07:22:00,80.5,75.9,29.85,South,176,8.0,8.0,86,0.00,,---,0.00,VWS V14.01,2013-09-07 11:22:00,
2013-09-07 07:27:00,80.6,76.0,29.85,South,176,8.0,8.0,86,0.00,,---,0.00,VWS V14.01,2013-09-07 11:27:00,
2013-09-07 07:32:00,80.6,76.0,29.86,South,176,0.0,1.0,86,0.00,,---,0.00,VWS V14.01,2013-09-07 11:32:00,
2013-09-07 07:37:00,80.8,76.6,29.86,South,176,0.0,1.0,87,0.00,,---,0.00,VWS V14.01,2013-09-07 11:37:00,
2013-09-07 07:42:00,80.7,76.1,29.86,South,176,0.0,1.0,86,0.00,,---,0.00,VWS V14.01,2013-09-07 11:42:00,
2013-09-07 07:47:00,80.6,76.0,29.86,South,176,0.0,0.0,86,0.00,,---,0.00,VWS V14.01,2013-09-07 11:47:00,
2013-09-07 07:52:00,80.6,76.0,29.86,South,176,9.0,9.0,86,0.00,,---,0.00,VWS V14.01,2013-09-07 11:52:00,
2013-09-07 07:57:00,80.8,76.2,29.86,South,176,0.0,1.0,86,0.00,,---,0.00,VWS V14.01,2013-09-07 11:57:00,
2013-09-07 08:02:00,81.0,76.4,29.86,South,177,0.0,0.0,86,0.00,,---,0.00,VWS V14.01,2013-09-07 12:02:00,
2013-09-07 08:07:00,81.0,76.1,29.86,South,176,0.0,2.0,85,0.00,,---,0.00,VWS V14.01,2013-09-07 12:07:00,
2013-09-07 08:12:00,81.2,76.3,29.86,South,176,0.0,1.0,85,0.00,,---,0.00,VWS V14.01,2013-09-07 12:12:00,
2013-09-07 08:17:00,81.2,75.9,29.86,South,176,0.0,2.0,84,0.00,,---,0.00,VWS V14.01,2013-09-07 12:17:00,
2013-09-07 08:22:00,81.2,75.9,29.86,South,176,1.0,1.0,84,0.00,,---,0.00,VWS V14.01,2013-09-07 12:22:00,
2013-09-07 08:27:00,81.2,75.9,29.86,South,176,0.0,1.0,84,0.00,,---,0.00,VWS V14.01,2013-09-07 12:27:00,
2013-09-07 08:32:00,81.2,75.9,29.86,South,176,0.0,1.0,84,0.00,,---,0.00,VWS V14.01,2013-09-07 12:32:00,
2013-09-07 08:37:00,81.2,75.9,29.86,South,176,2.0,4.0,84,0.00,,---,0.00,VWS V14.01,2013-09-07 12:37:00,
2013-09-07 08:42:00,81.2,75.9,29.86,South,176,9.0,9.0,84,0.00,,---,0.00,VWS V14.01,2013-09-07 12:42:00,
2013-09-07 08:47:00,81.2,75.9,29.87,South,176,7.0,7.0,84,0.00,,---,0.00,VWS V14.01,2013-09-07 12:47:00,
2013-09-07 08:52:00,81.1,75.8,29.87,South,176,0.0,8.0,84,0.00,,---,0.00,VWS V14.01,2013-09-07 12:52:00,
2013-09-07 08:57:00,81.0,75.7,29.87,South,176,1.0,9.0,84,0.00,,---,0.00,VWS V14.01,2013-09-07 12:57:00,
2013-09-07 09:02:00,81.0,75.3,29.87,South,176,0.0,2.0,83,0.00,,---,0.00,VWS V14.01,2013-09-07 13:02:00,
2013-09-07 09:07:00,81.2,75.6,29.87,South,176,2.0,2.0,83,0.00,,---,0.00,VWS V14.01,2013-09-07 13:07:00,
2013-09-07 09:12:00,81.4,75.4,29.87,South,176,1.0,2.0,82,0.00,,---,0.00,VWS V14.01,2013-09-07 13:12:00,
2013-09-07 09:17:00,81.5,75.5,29.87,South,176,6.0,10.0,82,0.00,,---,0.00,VWS V14.01,2013-09-07 13:17:00,
2013-09-07 09:22:00,81.6,75.2,29.87,South,176,1.0,2.0,81,0.00,,---,0.00,VWS V14.01,2013-09-07 13:22:00,
2013-09-07 09:27:00,81.7,75.3,29.87,South,176,2.0,6.0,81,0.00,,---,0.00,VWS V14.01,2013-09-07 13:27:00,
2013-09-07 09:32:00,81.9,75.1,29.88,South,176,1.0,1.0,80,0.00,,---,0.00,VWS V14.01,2013-09-07 13:32:00,
2013-09-07 09:37:00,82.1,75.3,29.88,South,176,1.0,2.0,80,0.00,,---,0.00,VWS V14.01,2013-09-07 13:37:00,
2013-09-07 09:42:00,82.3,75.5,29.88,South,176,0.0,2.0,80,0.00,,---,0.00,VWS V14.01,2013-09-07 13:42:00,
2013-09-07 09:47:00,82.4,75.2,29.88,South,176,0.0,1.0,79,0.00,,---,0.00,VWS V14.01,2013-09-07 13:47:00,
2013-09-07 09:52:00,82.6,75.4,29.88,South,176,0.0,2.0,79,0.00,,---,0.00,VWS V14.01,2013-09-07 13:52:00,
2013-09-07 09:57:00,82.8,75.6,29.88,South,176,0.0,1.0,79,0.00,,---,0.00,VWS V14.01,2013-09-07 13:57:00,
2013-09-07 10:02:00,83.0,75.8,29.88,South,176,4.0,4.0,79,0.00,,---,0.00,VWS V14.01,2013-09-07 14:02:00,
2013-09-07 10:07:00,83.2,76.4,29.88,South,176,2.0,2.0,80,0.00,,---,0.00,VWS V14.01,2013-09-07 14:07:00,
2013-09-07 10:12:00,83.3,76.5,29.88,South,176,6.0,6.0,80,0.00,,---,0.00,VWS V14.01,2013-09-07 14:12:00,
2013-09-07 10:17:00,83.3,76.5,29.89,South,176,7.0,8.0,80,0.00,,---,0.00,VWS V14.01,2013-09-07 14:17:00,
2013-09-07 10:22:00,83.3,76.5,29.89,South,177,0.0,1.0,80,0.00,,---,0.00,VWS V14.01,2013-09-07 14:22:00,
2013-09-07 10:27:00,83.4,76.6,29.89,South,176,0.0,2.0,80,0.00,,---,0.00,VWS V14.01,2013-09-07 14:27:00,
2013-09-07 10:32:00,83.4,76.6,29.90,South,176,1.0,1.0,80,0.00,,---,0.00,VWS V14.01,2013-09-07 14:32:00,
2013-09-07 10:37:00,83.3,76.5,29.90,South,176,0.0,0.0,80,0.00,,---,0.00,VWS V14.01,2013-09-07 14:37:00,
2013-09-07 10:42:00,83.2,76.4,29.90,South,176,0.0,2.0,80,0.00,,---,0.00,VWS V14.01,2013-09-07 14:42:00,
2013-09-07 10:47:00,83.3,76.9,29.90,South,176,0.0,1.0,81,0.00,,---,0.00,VWS V14.01,2013-09-07 14:47:00,
2013-09-07 10:52:00,83.3,76.9,29.90,South,176,1.0,1.0,81,0.00,,---,0.00,VWS V14.01,2013-09-07 14:52:00,
2013-09-07 10:57:00,83.3,76.9,29.90,South,176,0.0,2.0,81,0.00,,---,0.00,VWS V14.01,2013-09-07 14:57:00,
2013-09-07 11:02:00,83.2,76.8,29.91,South,176,2.0,8.0,81,0.00,,---,0.00,VWS V14.01,2013-09-07 15:02:00,
2013-09-07 11:07:00,83.2,76.8,29.91,South,176,1.0,6.0,81,0.00,,---,0.00,VWS V14.01,2013-09-07 15:07:00,
2013-09-07 11:12:00,82.9,76.8,29.91,South,176,2.0,2.0,82,0.00,,---,0.00,VWS V14.01,2013-09-07 15:12:00,
2013-09-07 11:17:00,82.9,76.8,29.91,South,176,0.0,2.0,82,0.00,,---,0.00,VWS V14.01,2013-09-07 15:17:00,
2013-09-07 11:22:00,82.9,76.8,29.91,South,176,0.0,1.0,82,0.00,,---,0.00,VWS V14.01,2013-09-07 15:22:00,
2013-09-07 11:27:00,83.1,77.0,29.91,South,176,2.0,2.0,82,0.00,,---,0.00,VWS V14.01,2013-09-07 15:27:00,
2013-09-07 11:32:00,83.2,77.1,29.90,South,176,0.0,1.0,82,0.00,,---,0.00,VWS V14.01,2013-09-07 15:32:00,
2013-09-07 11:37:00,83.6,77.5,29.90,South,176,0.0,2.0,82,0.00,,---,0.00,VWS V14.01,2013-09-07 15:37:00,
2013-09-07 11:42:00,83.9,77.4,29.90,South,176,0.0,2.0,81,0.00,,---,0.00,VWS V14.01,2013-09-07 15:42:00,
2013-09-07 11:47:00,84.1,77.6,29.90,South,176,0.0,1.0,81,0.00,,---,0.00,VWS V14.01,2013-09-07 15:47:00,
2013-09-07 11:52:00,84.1,77.3,29.90,South,176,1.0,1.0,80,0.00,,---,0.00,VWS V14.01,2013-09-07 15:52:00,
2013-09-07 11:57:00,84.2,77.4,29.90,South,176,2.0,2.0,80,0.00,,---,0.00,VWS V14.01,2013-09-07 15:57:00,
2013-09-07 12:02:00,84.4,77.6,29.90,South,176,2.0,2.0,80,0.00,,---,0.00,VWS V14.01,2013-09-07 16:02:00,
2013-09-07 12:07:00,84.7,77.5,29.90,South,176,2.0,2.0,79,0.00,,---,0.00,VWS V14.01,2013-09-07 16:07:00,
2013-09-07 12:12:00,84.9,77.7,29.90,South,176,1.0,1.0,79,0.00,,---,0.00,VWS V14.01,2013-09-07 16:12:00,
2013-09-07 12:17:00,85.1,77.9,29.90,South,176,1.0,1.0,79,0.00,,---,0.00,VWS V14.01,2013-09-07 16:17:00,
2013-09-07 12:22:00,85.1,77.9,29.90,South,176,1.0,1.0,79,0.00,,---,0.00,VWS V14.01,2013-09-07 16:22:00,
2013-09-07 12:27:00,85.2,77.9,29.90,South,176,6.0,8.0,79,0.00,,---,0.00,VWS V14.01,2013-09-07 16:27:00,
2013-09-07 12:32:00,85.2,77.6,29.90,South,176,2.0,7.0,78,0.00,,---,0.00,VWS V14.01,2013-09-07 16:32:00,
2013-09-07 12:37:00,85.3,77.7,29.90,South,176,1.0,2.0,78,0.00,,---,0.00,VWS V14.01,2013-09-07 16:37:00,
2013-09-07 12:42:00,85.4,77.4,29.90,South,176,1.0,2.0,77,0.00,,---,0.00,VWS V14.01,2013-09-07 16:42:00,
2013-09-07 12:47:00,85.7,78.1,29.90,South,176,1.0,1.0,78,0.00,,---,0.00,VWS V14.01,2013-09-07 16:47:00,
2013-09-07 12:52:00,85.7,77.7,29.90,South,176,1.0,2.0,77,0.00,,---,0.00,VWS V14.01,2013-09-07 16:52:00,
2013-09-07 12:57:00,85.8,77.8,29.90,South,176,0.0,1.0,77,0.00,,---,0.00,VWS V14.01,2013-09-07 16:57:00,
2013-09-07 13:02:00,85.7,77.7,29.89,South,176,1.0,1.0,77,0.00,,---,0.00,VWS V14.01,2013-09-07 17:02:00,
2013-09-07 13:07:00,85.7,78.1,29.89,South,176,0.0,1.0,78,0.00,,---,0.00,VWS V14.01,2013-09-07 17:07:00,
2013-09-07 13:12:00,85.4,77.4,29.89,South,176,0.0,1.0,77,0.00,,---,0.00,VWS V14.01,2013-09-07 17:12:00,
2013-09-07 13:17:00,85.5,77.5,29.89,South,176,0.0,0.0,77,0.00,,---,0.00,VWS V14.01,2013-09-07 17:17:00,
2013-09-07 13:22:00,85.5,77.5,29.89,South,176,0.0,0.0,77,0.00,,---,0.00,VWS V14.01,2013-09-07 17:22:00,
2013-09-07 13:27:00,85.5,77.5,29.89,South,176,0.0,0.0,77,0.00,,---,0.00,VWS V14.01,2013-09-07 17:27:00,
2013-09-07 13:32:00,85.2,77.2,29.88,South,176,0.0,1.0,77,0.00,,---,0.00,VWS V14.01,2013-09-07 17:32:00,
2013-09-07 13:37:00,85.0,76.6,29.88,South,176,0.0,0.0,76,0.00,,---,0.00,VWS V14.01,2013-09-07 17:37:00,
2013-09-07 13:42:00,84.8,76.8,29.88,South,176,0.0,0.0,77,0.00,,---,0.00,VWS V14.01,2013-09-07 17:42:00,
2013-09-07 13:47:00,84.7,77.1,29.88,South,176,0.0,1.0,78,0.00,,---,0.00,VWS V14.01,2013-09-07 17:47:00,
2013-09-07 13:52:00,84.9,77.3,29.88,South,176,0.0,1.0,78,0.00,,---,0.00,VWS V14.01,2013-09-07 17:52:00,
2013-09-07 13:57:00,84.6,76.6,29.88,South,176,0.0,0.0,77,0.00,,---,0.00,VWS V14.01,2013-09-07 17:57:00,
2013-09-07 14:02:00,84.1,76.5,29.87,South,176,0.0,0.0,78,0.00,,---,0.00,VWS V14.01,2013-09-07 18:02:00,
2013-09-07 14:07:00,83.5,76.3,29.87,South,176,0.0,0.0,79,0.00,,---,0.00,VWS V14.01,2013-09-07 18:07:00,
2013-09-07 14:12:00,83.2,76.0,29.87,South,176,0.0,0.0,79,0.00,,---,0.00,VWS V14.01,2013-09-07 18:12:00,
2013-09-07 14:17:00,83.0,75.8,29.87,South,176,0.0,1.0,79,0.00,,---,0.00,VWS V14.01,2013-09-07 18:17:00,
2013-09-07 14:22:00,82.8,75.6,29.87,South,176,0.0,0.0,79,0.00,,---,0.00,VWS V14.01,2013-09-07 18:22:00,
2013-09-07 14:27:00,82.8,76.0,29.87,South,176,0.0,1.0,80,0.00,,---,0.00,VWS V14.01,2013-09-07 18:27:00,
2013-09-07 14:32:00,82.5,75.3,29.86,South,176,10.0,10.0,79,0.00,,---,0.00,VWS V14.01,2013-09-07 18:32:00,
2013-09-07 14:37:00,82.5,75.7,29.86,South,176,0.0,1.0,80,0.00,,---,0.00,VWS V14.01,2013-09-07 18:37:00,
2013-09-07 14:42:00,82.5,75.7,29.86,South,176,0.0,0.0,80,0.00,,---,0.00,VWS V14.01,2013-09-07 18:42:00,
2013-09-07 14:47:00,82.4,75.2,29.86,South,176,0.0,1.0,79,0.00,,---,0.00,VWS V14.01,2013-09-07 18:47:00,
2013-09-07 14:52:00,82.5,75.3,29.86,South,176,0.0,0.0,79,0.00,,---,0.00,VWS V14.01,2013-09-07 18:52:00,
2013-09-07 14:57:00,82.5,75.3,29.86,South,176,0.0,1.0,79,0.00,,---,0.00,VWS V14.01,2013-09-07 18:57:00,
2013-09-07 15:02:00,82.5,75.7,29.86,South,177,0.0,1.0,80,0.00,,---,0.00,VWS V14.01,2013-09-07 19:02:00,
2013-09-07 15:07:00,82.5,75.3,29.86,South,176,0.0,1.0,79,0.00,,---,0.00,VWS V14.01,2013-09-07 19:07:00,
2013-09-07 15:12:00,82.4,75.2,29.86,South,176,0.0,0.0,79,0.00,,---,0.00,VWS V14.01,2013-09-07 19:12:00,
2013-09-07 15:17:00,82.4,75.2,29.85,South,176,0.0,0.0,79,0.00,,---,0.00,VWS V14.01,2013-09-07 19:17:00,
2013-09-07 15:22:00,82.3,75.1,29.85,South,176,0.0,0.0,79,0.00,,---,0.00,VWS V14.01,2013-09-07 19:22:00,
2013-09-07 15:27:00,82.3,75.1,29.85,South,176,0.0,0.0,79,0.00,,---,0.00,VWS V14.01,2013-09-07 19:27:00,
2013-09-07 15:32:00,82.4,75.2,29.85,South,176,0.0,0.0,79,0.00,,---,0.00,VWS V14.01,2013-09-07 19:32:00,
2013-09-07 15:37:00,82.3,74.8,29.85,South,176,0.0,0.0,78,0.00,,---,0.00,VWS V14.01,2013-09-07 19:37:00,
2013-09-07 15:43:00,82.3,74.8,29.85,South,176,0.0,0.0,78,0.00,,---,0.00,VWS V14.01,2013-09-07 19:43:00,
2013-09-07 15:48:00,82.4,74.9,29.85,South,176,0.0,0.0,78,0.00,,---,0.00,VWS V14.01,2013-09-07 19:48:00,
2013-09-07 15:53:00,82.4,75.2,29.85,South,176,0.0,0.0,79,0.00,,---,0.00,VWS V14.01,2013-09-07 19:53:00,
2013-09-07 15:58:00,82.3,74.8,29.85,South,176,0.0,0.0,78,0.00,,---,0.00,VWS V14.01,2013-09-07 19:58:00,
2013-09-07 16:03:00,82.3,74.8,29.85,South,176,0.0,0.0,78,0.00,,---,0.00,VWS V14.01,2013-09-07 20:03:00,
2013-09-07 16:08:00,82.4,74.9,29.85,South,176,0.0,0.0,78,0.00,,---,0.00,VWS V14.01,2013-09-07 20:08:00,
2013-09-07 16:13:00,82.7,75.2,29.85,South,176,0.0,0.0,78,0.00,,---,0.00,VWS V14.01,2013-09-07 20:13:00,
2013-09-07 16:18:00,83.0,75.4,29.84,South,176,0.0,1.0,78,0.00,,---,0.00,VWS V14.01,2013-09-07 20:18:00,
2013-09-07 16:23:00,83.3,75.3,29.84,South,176,0.0,0.0,77,0.00,,---,0.00,VWS V14.01,2013-09-07 20:23:00,
2013-09-07 16:28:00,83.6,75.6,29.84,South,176,0.0,0.0,77,0.00,,---,0.00,VWS V14.01,2013-09-07 20:28:00,
2013-09-07 16:33:00,83.6,74.8,29.84,South,176,0.0,0.0,75,0.00,,---,0.00,VWS V14.01,2013-09-07 20:33:00,
2013-09-07 16:38:00,83.4,75.1,29.84,South,176,0.0,0.0,76,0.00,,---,0.00,VWS V14.01,2013-09-07 20:38:00,
2013-09-07 16:43:00,83.5,74.8,29.84,South,176,0.0,0.0,75,0.00,,---,0.00,VWS V14.01,2013-09-07 20:43:00,
2013-09-07 16:48:00,83.6,74.8,29.83,South,176,0.0,0.0,75,0.00,,---,0.00,VWS V14.01,2013-09-07 20:48:00,
2013-09-07 16:53:00,83.7,75.3,29.83,South,176,0.0,0.0,76,0.00,,---,0.00,VWS V14.01,2013-09-07 20:53:00,
2013-09-07 16:58:00,83.7,74.9,29.83,South,176,0.0,0.0,75,0.00,,---,0.00,VWS V14.01,2013-09-07 20:58:00,
2013-09-07 17:03:00,83.8,75.0,29.83,South,176,0.0,0.0,75,0.00,,---,0.00,VWS V14.01,2013-09-07 21:03:00,
2013-09-07 17:08:00,83.8,75.0,29.83,South,176,0.0,0.0,75,0.00,,---,0.00,VWS V14.01,2013-09-07 21:08:00,
2013-09-07 17:13:00,83.9,75.1,29.83,South,176,0.0,0.0,75,0.00,,---,0.00,VWS V14.01,2013-09-07 21:13:00,
2013-09-07 17:18:00,83.8,74.6,29.84,South,176,0.0,0.0,74,0.00,,---,0.00,VWS V14.01,2013-09-07 21:18:00,
2013-09-07 17:23:00,83.7,74.9,29.84,South,176,0.0,0.0,75,0.00,,---,0.00,VWS V14.01,2013-09-07 21:23:00,
2013-09-07 17:28:00,83.5,74.8,29.84,South,176,0.0,0.0,75,0.00,,---,0.00,VWS V14.01,2013-09-07 21:28:00,
2013-09-07 17:33:00,83.2,74.5,29.84,South,176,0.0,0.0,75,0.00,,---,0.00,VWS V14.01,2013-09-07 21:33:00,
2013-09-07 17:38:00,83.0,74.7,29.84,South,176,0.0,0.0,76,0.00,,---,0.00,VWS V14.01,2013-09-07 21:38:00,
2013-09-07 17:43:00,82.9,74.6,29.84,South,176,0.0,0.0,76,0.00,,---,0.00,VWS V14.01,2013-09-07 21:43:00,
2013-09-07 17:48:00,82.8,74.5,29.83,South,176,0.0,0.0,76,0.00,,---,0.00,VWS V14.01,2013-09-07 21:48:00,
2013-09-07 17:53:00,82.7,74.4,29.83,South,176,0.0,0.0,76,0.00,,---,0.00,VWS V14.01,2013-09-07 21:53:00,
2013-09-07 17:58:00,82.6,74.3,29.83,South,176,0.0,0.0,76,0.00,,---,0.00,VWS V14.01,2013-09-07 21:58:00,
2013-09-07 18:03:00,82.5,74.2,29.83,South,176,0.0,0.0,76,0.00,,---,0.00,VWS V14.01,2013-09-07 22:03:00,
2013-09-07 18:08:00,82.5,74.6,29.83,South,176,0.0,0.0,77,0.00,,---,0.00,VWS V14.01,2013-09-07 22:08:00,
2013-09-07 18:13:00,82.5,74.6,29.83,South,176,0.0,0.0,77,0.00,,---,0.00,VWS V14.01,2013-09-07 22:13:00,
2013-09-07 18:18:00,82.5,74.6,29.83,South,176,0.0,0.0,77,0.00,,---,0.00,VWS V14.01,2013-09-07 22:18:00,
2013-09-07 18:23:00,82.4,74.9,29.83,South,176,0.0,0.0,78,0.00,,---,0.00,VWS V14.01,2013-09-07 22:23:00,
2013-09-07 18:28:00,82.3,74.4,29.83,South,176,0.0,0.0,77,0.00,,---,0.00,VWS V14.01,2013-09-07 22:28:00,
2013-09-07 18:33:00,82.3,74.8,29.82,South,176,0.0,0.0,78,0.00,,---,0.00,VWS V14.01,2013-09-07 22:33:00,
2013-09-07 18:38:00,82.3,74.8,29.82,South,176,0.0,0.0,78,0.00,,---,0.00,VWS V14.01,2013-09-07 22:38:00,
2013-09-07 18:43:00,82.3,74.8,29.82,South,176,0.0,0.0,78,0.00,,---,0.00,VWS V14.01,2013-09-07 22:43:00,
2013-09-07 18:48:00,82.3,74.8,29.81,South,176,0.0,0.0,78,0.00,,---,0.00,VWS V14.01,2013-09-07 22:48:00,
2013-09-07 18:53:00,82.3,74.8,29.81,South,176,0.0,1.0,78,0.00,,---,0.00,VWS V14.01,2013-09-07 22:53:00,
2013-09-07 18:58:00,82.3,74.8,29.81,South,176,0.0,0.0,78,0.00,,---,0.00,VWS V14.01,2013-09-07 22:58:00,
2013-09-07 19:03:00,82.4,74.9,29.82,South,176,0.0,0.0,78,0.00,,---,0.00,VWS V14.01,2013-09-07 23:03:00,
2013-09-07 19:08:00,82.3,74.8,29.82,South,176,0.0,0.0,78,0.00,,---,0.00,VWS V14.01,2013-09-07 23:08:00,
2013-09-07 19:13:00,82.2,74.7,29.82,South,176,0.0,0.0,78,0.00,,---,0.00,VWS V14.01,2013-09-07 23:13:00,
2013-09-07 19:18:00,82.2,74.3,29.82,South,176,1.0,1.0,77,0.00,,---,0.00,VWS V14.01,2013-09-07 23:18:00,
2013-09-07 19:23:00,82.3,74.4,29.82,South,176,0.0,0.0,77,0.00,,---,0.00,VWS V14.01,2013-09-07 23:23:00,
2013-09-07 19:28:00,82.4,74.9,29.82,South,176,0.0,0.0,78,0.00,,---,0.00,VWS V14.01,2013-09-07 23:28:00,
2013-09-07 19:33:00,82.4,74.9,29.82,South,176,0.0,0.0,78,0.00,,---,0.00,VWS V14.01,2013-09-07 23:33:00,
2013-09-07 19:38:00,82.4,75.2,29.82,South,176,0.0,0.0,79,0.00,,---,0.00,VWS V14.01,2013-09-07 23:38:00,
2013-09-07 19:43:00,82.4,75.2,29.82,South,176,0.0,0.0,79,0.00,,---,0.00,VWS V14.01,2013-09-07 23:43:00,
2013-09-07 19:48:00,82.4,75.6,29.82,South,176,0.0,0.0,80,0.00,,---,0.00,VWS V14.01,2013-09-07 23:48:00,
2013-09-07 19:53:00,82.0,75.6,29.82,South,176,0.0,0.0,81,0.00,,---,0.00,VWS V14.01,2013-09-07 23:53:00,
2013-09-07 19:58:00,81.1,74.7,29.82,South,176,0.0,0.0,81,0.00,,---,0.00,VWS V14.01,2013-09-07 23:58:00,
2013-09-07 20:03:00,80.3,74.3,29.83,South,177,0.0,0.0,82,0.00,,---,0.00,VWS V14.01,2013-09-08 00:03:00,
2013-09-07 20:08:00,79.8,74.5,29.83,South,176,0.0,0.0,84,0.00,,---,0.00,VWS V14.01,2013-09-08 00:08:00,
2013-09-07 20:13:00,79.4,74.5,29.83,South,176,0.0,0.0,85,0.00,,---,0.00,VWS V14.01,2013-09-08 00:13:00,
2013-09-07 20:18:00,79.1,74.2,29.84,South,176,0.0,0.0,85,0.00,,---,0.00,VWS V14.01,2013-09-08 00:18:00,
2013-09-07 20:23:00,78.7,73.8,29.84,South,176,0.0,1.0,85,0.00,,---,0.00,VWS V14.01,2013-09-08 00:23:00,
2013-09-07 20:28:00,78.6,74.1,29.84,South,176,0.0,0.0,86,0.00,,---,0.00,VWS V14.01,2013-09-08 00:28:00,
2013-09-07 20:33:00,78.5,74.0,29.84,South,176,0.0,0.0,86,0.00,,---,0.00,VWS V14.01,2013-09-08 00:33:00,
2013-09-07 20:38:00,78.4,74.2,29.84,South,176,0.0,0.0,87,0.00,,---,0.00,VWS V14.01,2013-09-08 00:38:00,
2013-09-07 20:43:00,78.4,74.2,29.84,South,176,0.0,0.0,87,0.00,,---,0.00,VWS V14.01,2013-09-08 00:43:00,
2013-09-07 20:48:00,78.3,74.1,29.84,South,176,0.0,0.0,87,0.00,,---,0.00,VWS V14.01,2013-09-08 00:48:00,
2013-09-07 20:53:00,78.3,74.1,29.84,South,176,0.0,0.0,87,0.00,,---,0.00,VWS V14.01,2013-09-08 00:53:00,
2013-09-07 20:58:00,78.3,74.1,29.84,South,176,0.0,0.0,87,0.00,,---,0.00,VWS V14.01,2013-09-08 00:58:00,
2013-09-07 21:03:00,78.2,74.0,29.84,South,177,0.0,0.0,87,0.00,,---,0.00,VWS V14.01,2013-09-08 01:03:00,
2013-09-07 21:08:00,78.2,74.4,29.84,South,176,0.0,0.0,88,0.00,,---,0.00,VWS V14.01,2013-09-08 01:08:00,
2013-09-07 21:13:00,78.2,74.4,29.84,South,176,0.0,0.0,88,0.00,,---,0.00,VWS V14.01,2013-09-08 01:13:00,
2013-09-07 21:18:00,78.2,74.4,29.85,South,177,0.0,0.0,88,0.00,,---,0.00,VWS V14.01,2013-09-08 01:18:00,
2013-09-07 21:23:00,78.2,74.4,29.85,South,176,0.0,0.0,88,0.00,,---,0.00,VWS V14.01,2013-09-08 01:23:00,
2013-09-07 21:28:00,78.1,74.3,29.85,South,177,0.0,0.0,88,0.00,,---,0.00,VWS V14.01,2013-09-08 01:28:00,
2013-09-07 21:33:00,78.1,74.3,29.85,South,176,0.0,0.0,88,0.00,,---,0.00,VWS V14.01,2013-09-08 01:33:00,
2013-09-07 21:38:00,78.0,74.2,29.85,South,176,0.0,0.0,88,0.00,,---,0.00,VWS V14.01,2013-09-08 01:38:00,
2013-09-07 21:43:00,78.0,74.2,29.85,South,176,0.0,1.0,88,0.00,,---,0.00,VWS V14.01,2013-09-08 01:43:00,
2013-09-07 21:48:00,77.8,74.0,29.86,South,176,0.0,0.0,88,0.00,,---,0.00,VWS V14.01,2013-09-08 01:48:00,
2013-09-07 21:53:00,77.8,74.0,29.86,South,176,0.0,0.0,88,0.00,,---,0.00,VWS V14.01,2013-09-08 01:53:00,
2013-09-07 21:58:00,77.7,73.9,29.86,South,176,0.0,0.0,88,0.00,,---,0.00,VWS V14.01,2013-09-08 01:58:00,
2013-09-07 22:03:00,77.5,73.7,29.86,South,176,0.0,0.0,88,0.00,,---,0.00,VWS V14.01,2013-09-08 02:03:00,
2013-09-07 22:08:00,77.4,73.6,29.86,South,176,0.0,1.0,88,0.00,,---,0.00,VWS V14.01,2013-09-08 02:08:00,
2013-09-07 22:13:00,77.3,73.5,29.86,South,176,0.0,0.0,88,0.00,,---,0.00,VWS V14.01,2013-09-08 02:13:00,
2013-09-07 22:18:00,77.1,73.3,29.85,South,176,0.0,1.0,88,0.00,,---,0.00,VWS V14.01,2013-09-08 02:18:00,
2013-09-07 22:23:00,77.0,73.5,29.85,South,177,0.0,0.0,89,0.00,,---,0.00,VWS V14.01,2013-09-08 02:23:00,
2013-09-07 22:28:00,76.9,73.4,29.85,South,176,0.0,0.0,89,0.00,,---,0.00,VWS V14.01,2013-09-08 02:28:00,
2013-09-07 22:33:00,76.8,73.3,29.85,South,176,0.0,0.0,89,0.00,,---,0.00,VWS V14.01,2013-09-08 02:33:00,
2013-09-07 22:38:00,76.7,73.2,29.85,South,176,0.0,0.0,89,0.00,,---,0.00,VWS V14.01,2013-09-08 02:38:00,
2013-09-07 22:43:00,76.5,73.3,29.85,South,176,0.0,0.0,90,0.00,,---,0.00,VWS V14.01,2013-09-08 02:43:00,
2013-09-07 22:48:00,76.3,73.2,29.85,South,176,0.0,1.0,90,0.00,,---,0.00,VWS V14.01,2013-09-08 02:48:00,
2013-09-07 22:53:00,76.1,73.0,29.85,South,176,0.0,0.0,90,0.00,,---,0.00,VWS V14.01,2013-09-08 02:53:00,
2013-09-07 22:58:00,76.0,72.9,29.85,South,176,0.0,0.0,90,0.00,,---,0.00,VWS V14.01,2013-09-08 02:58:00,
2013-09-07 23:03:00,76.0,72.9,29.85,South,176,0.0,0.0,90,0.00,,---,0.00,VWS V14.01,2013-09-08 03:03:00,
2013-09-07 23:08:00,75.9,73.1,29.85,South,177,1.0,1.0,91,0.00,,---,0.00,VWS V14.01,2013-09-08 03:08:00,
2013-09-07 23:13:00,75.8,73.0,29.85,South,176,0.0,0.0,91,0.00,,---,0.00,VWS V14.01,2013-09-08 03:13:00,
2013-09-07 23:18:00,75.7,72.9,29.85,South,176,0.0,0.0,91,0.00,,---,0.00,VWS V14.01,2013-09-08 03:18:00,
2013-09-07 23:23:00,75.6,72.8,29.85,South,176,0.0,1.0,91,0.00,,---,0.00,VWS V14.01,2013-09-08 03:23:00,
2013-09-07 23:28:00,75.5,72.7,29.85,South,176,0.0,0.0,91,0.00,,---,0.00,VWS V14.01,2013-09-08 03:28:00,
2013-09-07 23:33:00,75.4,72.6,29.84,South,176,0.0,1.0,91,0.00,,---,0.00,VWS V14.01,2013-09-08 03:33:00,
2013-09-07 23:38:00,75.3,72.8,29.84,South,176,0.0,1.0,92,0.00,,---,0.00,VWS V14.01,2013-09-08 03:38:00,
2013-09-07 23:43:00,75.2,72.7,29.84,South,176,0.0,0.0,92,0.00,,---,0.00,VWS V14.01,2013-09-08 03:43:00,
2013-09-07 23:48:00,75.1,72.6,29.85,South,177,0.0,1.0,92,0.00,,---,0.00,VWS V14.01,2013-09-08 03:48:00,
2013-09-07 23:53:00,75.1,72.6,29.85,South,176,0.0,1.0,92,0.00,,---,0.00,VWS V14.01,2013-09-08 03:53:00,
2013-09-07 23:58:00,75.0,72.5,29.85,South,176,0.0,0.0,92,0.00,,---,0.00,VWS V14.01,2013-09-08 03:58:00,